KC5AYO Weather Reports


Display with metric or nautical units.
time (UTC)temp
F
wind
direction
speed
MPH
gust
MPH
rain 1hr
in
rain 24hr
in
rain mn
in
humidity
%
barometer
mb
20260503213558 62 232 0.0 5.0 0.00 0.00 0.00 43 1013.0
20260503213107 62 292 0.0 7.0 0.00 0.00 0.00 47 1013.0
20260503212557 62 241 1.0 7.0 0.00 0.00 0.00 41 1013.2
20260503212055 62 134 0.0 4.0 0.00 0.00 0.00 41 1013.2
20260503211555 62 303 0.0 5.0 0.00 0.00 0.00 44 1013.5
20260503211055 62 113 0.0 6.0 0.00 0.00 0.00 43 1013.6
20260503210557 62 211 0.0 9.0 0.00 0.00 0.00 45 1013.7
20260503210059 62 198 0.0 9.0 0.00 0.00 0.00 41 1013.9
20260503205552 62 214 0.0 4.0 0.00 0.00 0.00 42 1014.1
20260503205052 63 146 0.0 4.0 0.00 0.00 0.00 43 1014.3
20260503204555 62 171 0.0 5.0 0.00 0.00 0.00 41 1014.3
20260503204053 63 175 0.0 7.0 0.00 0.00 0.00 41 1014.2
20260503203554 63 271 0.0 11.0 0.00 0.00 0.00 43 1014.4
20260503203051 64 244 2.0 9.0 0.00 0.00 0.00 42 1014.3
20260503202550 63 297 0.0 5.0 0.00 0.00 0.00 43 1014.3
20260503202050 63 322 0.0 5.0 0.00 0.00 0.00 43 1014.2
20260503201548 64 17 0.0 5.0 0.00 0.00 0.00 39 1014.4
20260503201049 64 198 0.0 9.0 0.00 0.00 0.00 42 1014.4
20260503200548 63 284 0.0 9.0 0.00 0.00 0.00 39 1014.6
20260503200054 63 240 2.0 5.0 0.00 0.00 0.00 41 1014.6
20260503195548 62 145 0.0 6.0 0.00 0.00 0.00 41 1014.6
20260503195047 63 195 1.0 6.0 0.00 0.00 0.00 39 1014.8
20260503194548 64 290 0.0 3.0 0.00 0.00 0.00 43 1014.8
20260503194046 64 255 0.0 4.0 0.00 0.00 0.00 43 1014.9
20260503193546 64 63 0.0 6.0 0.00 0.00 0.00 40 1014.6
20260503193052 64 226 0.0 4.0 0.00 0.00 0.00 39 1014.8
20260503192545 64 203 0.0 4.0 0.00 0.00 0.00 45 1014.8
20260503192044 64 130 1.0 5.0 0.00 0.00 0.00 40 1014.9
20260503191543 63 264 0.0 6.0 0.00 0.00 0.00 44 1015.2
20260503191044 63 284 0.0 6.0 0.00 0.00 0.00 42 1015.4
20260503190544 63 144 0.0 6.0 0.00 0.00 0.00 39 1015.4
20260503190042 63 325 1.0 5.0 0.00 0.00 0.00 40 1015.4
20260503185544 63 186 0.0 5.0 0.00 0.00 0.00 39 1015.6
20260503185041 63 89 0.0 5.0 0.00 0.00 0.00 38 1015.6
20260503184551 63 131 0.0 5.0 0.00 0.00 0.00 40 1015.9
20260503184045 63 221 1.0 5.0 0.00 0.00 0.00 43 1016.1
20260503183538 64 106 0.0 2.0 0.00 0.00 0.00 39 1016.1
20260503183057 63 171 0.0 5.0 0.00 0.00 0.00 40 1016.1
20260503182536 63 234 0.0 6.0 0.00 0.00 0.00 38 1016.3
20260503182036 63 146 0.0 6.0 0.00 0.00 0.00 42 1016.5
20260503181536 63 304 0.0 3.0 0.00 0.00 0.00 40 1016.5
20260503181035 63 252 0.0 4.0 0.00 0.00 0.00 43 1016.6
20260503180534 62 251 0.0 4.0 0.00 0.00 0.00 37 1016.6
20260503180040 62 26 1.0 3.0 0.00 0.00 0.00 40 1016.8
20260503175532 62 301 0.0 6.0 0.00 0.00 0.00 37 1016.9
20260503175030 61 294 0.0 6.0 0.00 0.00 0.00 40 1017.1
20260503174530 62 205 1.0 8.0 0.00 0.00 0.00 40 1017.1
20260503174029 61 203 0.0 8.0 0.00 0.00 0.00 37 1017.1
20260503173528 62 137 1.0 6.0 0.00 0.00 0.00 36 1017.2
20260503173129 62 272 0.0 5.0 0.00 0.00 0.00 41 1017.2
20260503172531 61 333 0.0 5.0 0.00 0.00 0.00 41 1017.3
20260503172025 61 294 1.0 6.0 0.00 0.00 0.00 36 1017.2
20260503171524 61 273 0.0 5.0 0.00 0.00 0.00 40 1017.4
20260503171025 60 121 1.0 5.0 0.00 0.00 0.00 38 1017.5
20260503170522 60 198 0.0 7.0 0.00 0.00 0.00 37 1017.6
20260503151006 55 298 0.0 5.0 0.00 0.00 0.00 47 1019.0
20260503150503 56 304 1.0 8.0 0.00 0.00 0.00 43 1019.1
20260503131037 46 211 0.0 2.0 0.00 0.00 0.00 69 1019.5
20260503130533 46 267 0.0 2.0 0.00 0.00 0.00 67 1019.5
20260503110511 37 209 0.0 0.0 0.00 0.00 0.00 81 1018.7
20260503090504 36 292 0.0 0.0 0.00 0.00 0.00 92 1018.7
20260503081501 36 296 0.0 0.0 0.00 0.00 0.00 92 1018.7
20260503081100 36 296 0.0 0.0 0.00 0.00 0.00 92 1018.5
20260503080602 36 296 0.0 0.0 0.00 0.00 0.00 92 1018.6
20260503072559 36 296 0.0 0.0 0.00 0.00 0.00 92 1018.5
20260503072057 37 296 0.0 0.0 0.00 0.00 0.00 92 1018.6
20260503071607 37 296 0.0 0.0 0.00 0.00 0.00 92 1018.6
20260503071056 37 296 0.0 0.0 0.00 0.00 0.00 92 1018.6
20260503070556 37 296 0.0 0.0 0.00 0.00 0.00 91 1018.6
20260503070107 37 296 0.0 0.0 0.00 0.00 0.00 91 1018.6
20260503055051 37 303 0.0 0.0 0.00 0.00 0.00 91 1019.1
20260503054551 37 303 0.0 0.0 0.00 0.00 0.00 91 1019.2
20260503054051 37 303 0.0 0.0 0.00 0.00 0.00 91 1019.2
20260503053551 38 303 0.0 0.0 0.00 0.00 0.00 91 1019.2
20260503053050 38 303 0.0 0.0 0.00 0.00 0.00 91 1019.2
20260503052551 38 303 0.0 0.0 0.00 0.00 0.00 90 1019.3
20260503052049 37 303 0.0 0.0 0.00 0.00 0.00 90 1019.3
20260503051552 37 303 0.0 0.0 0.00 0.00 0.00 89 1019.2
20260503051048 38 303 0.0 0.0 0.00 0.00 0.00 89 1019.2
20260503050548 38 308 0.0 2.0 0.00 0.00 0.00 89 1019.3
20260503050047 39 333 0.0 2.0 0.00 0.00 0.00 90 1019.4
20260503045550 39 333 0.0 2.0 0.00 0.00 0.00 91 1019.3
20260503045050 39 333 0.0 2.0 0.00 0.00 0.00 91 1019.4
20260503044546 38 333 0.0 0.0 0.00 0.00 0.00 89 1019.3
20260503044046 38 333 0.0 0.0 0.00 0.00 0.00 89 1019.2
20260503043544 38 333 0.0 0.0 0.00 0.00 0.00 89 1019.1
20260503043047 38 333 0.0 0.0 0.00 0.00 0.00 88 1019.0
20260503042543 39 333 0.0 0.0 0.00 0.00 0.00 88 1019.0
20260503042043 39 333 0.0 0.0 0.00 0.00 0.00 87 1019.0
20260503041544 39 333 0.0 0.0 0.00 0.00 0.00 87 1019.0
20260503041041 39 333 0.0 0.0 0.00 0.00 0.00 86 1018.9
20260503040542 39 333 0.0 0.0 0.00 0.00 0.00 85 1019.0
20260503040047 39 333 0.0 0.0 0.00 0.00 0.00 85 1019.1
20260503035539 39 333 0.0 0.0 0.00 0.00 0.00 85 1019.0
20260503035041 39 333 0.0 0.0 0.00 0.00 0.00 86 1019.0
20260503034558 40 333 0.0 0.0 0.00 0.00 0.00 86 1019.1
20260503034039 40 333 0.0 0.0 0.00 0.00 0.00 85 1019.0
20260503033539 40 333 0.0 0.0 0.00 0.00 0.00 84 1019.0
20260503033043 40 333 0.0 0.0 0.00 0.00 0.00 83 1019.0
20260503032538 40 333 0.0 0.0 0.00 0.00 0.00 83 1019.0
20260503032038 40 333 0.0 0.0 0.00 0.00 0.00 83 1019.0
20260503031542 40 333 0.0 0.0 0.00 0.00 0.00 82 1019.1
20260503031038 41 333 0.0 0.0 0.00 0.00 0.00 82 1019.1
20260503030537 41 333 0.0 0.0 0.00 0.00 0.00 82 1019.1
20260503030050 41 333 0.0 0.0 0.00 0.00 0.00 82 1019.0
20260503025537 41 333 0.0 0.0 0.00 0.00 0.00 80 1019.0
20260503025037 41 333 0.0 0.0 0.00 0.00 0.00 79 1019.0
20260503024537 41 333 0.0 0.0 0.00 0.00 0.00 79 1019.0
20260503024037 42 333 0.0 0.0 0.00 0.00 0.00 78 1018.9
20260503023537 42 333 0.0 0.0 0.00 0.00 0.00 76 1018.9
20260503023037 42 333 0.0 0.0 0.00 0.00 0.00 72 1018.8
20260503022535 42 333 0.0 0.0 0.00 0.00 0.00 71 1018.7
20260503022038 42 333 0.0 0.0 0.00 0.00 0.00 69 1018.6
20260503021542 43 333 0.0 0.0 0.00 0.00 0.00 69 1018.5
20260503021035 43 333 0.0 0.0 0.00 0.00 0.00 69 1018.6
20260503020535 43 333 0.0 0.0 0.00 0.00 0.00 69 1018.5
20260503020039 43 333 0.0 0.0 0.00 0.00 0.00 71 1018.4
20260503015535 44 333 0.0 0.0 0.00 0.00 0.00 71 1018.4
20260503015034 44 333 0.0 0.0 0.00 0.00 0.00 70 1018.3
20260503014535 44 333 0.0 0.0 0.00 0.00 0.00 67 1018.3
20260503014037 45 333 0.0 0.0 0.00 0.00 0.00 67 1018.2
20260503013534 46 333 0.0 0.0 0.00 0.00 0.00 63 1018.2
20260503013035 46 333 0.0 0.0 0.00 0.00 0.00 64 1018.1
20260503012535 47 333 0.0 0.0 0.00 0.00 0.00 59 1018.1
20260503012035 48 333 0.0 0.0 0.00 0.00 0.00 58 1018.0
20260503011535 48 333 0.0 0.0 0.00 0.00 0.00 57 1017.9
20260503011033 49 336 0.0 0.0 0.00 0.00 0.00 55 1017.9
20260503010533 49 336 0.0 0.0 0.00 0.00 0.00 54 1017.8
20260503010035 49 336 0.0 0.0 0.00 0.00 0.00 51 1017.8
20260503005533 49 336 0.0 0.0 0.00 0.00 0.00 49 1017.8
20260503005035 49 336 0.0 2.0 0.00 0.00 0.00 51 1017.8
20260503004533 50 336 0.0 2.0 0.00 0.00 0.00 46 1017.7
20260503004035 50 335 0.0 2.0 0.00 0.00 0.00 45 1017.8
20260503003532 50 343 0.0 2.0 0.00 0.00 0.00 44 1017.8
20260503003034 50 350 0.0 2.0 0.00 0.00 0.00 45 1017.8
20260503002532 51 315 0.0 2.0 0.00 0.00 0.00 44 1017.7
20260503002033 51 313 0.0 2.0 0.00 0.00 0.00 46 1017.7
20260503001531 51 343 0.0 2.0 0.00 0.00 0.00 44 1017.5
20260503001031 51 335 0.0 2.0 0.00 0.00 0.00 46 1017.5
20260503000532 52 331 0.0 2.0 0.00 0.00 0.00 45 1017.5
20260503000034 52 355 0.0 2.0 0.00 0.00 0.00 41 1017.5
20260502235534 52 345 0.0 3.0 0.00 0.00 0.00 44 1017.4
20260502235031 52 322 0.0 3.0 0.00 0.00 0.00 42 1017.4
20260502234531 53 349 0.0 6.0 0.00 0.00 0.00 44 1017.3
20260502234031 53 355 0.0 6.0 0.00 0.00 0.00 43 1017.4
20260502233531 53 338 2.0 5.0 0.00 0.00 0.00 40 1017.3
20260502233030 53 315 1.0 5.0 0.00 0.00 0.00 40 1017.4
20260502232531 53 301 0.0 5.0 0.00 0.00 0.00 43 1017.3
20260502232030 53 360 0.0 4.0 0.00 0.00 0.00 40 1017.4
20260502231532 53 345 0.0 3.0 0.00 0.00 0.00 43 1017.4
20260502231031 53 19 0.0 3.0 0.00 0.00 0.00 41 1017.3
20260502230530 53 13 0.0 3.0 0.00 0.00 0.00 40 1017.4
20260502230029 53 360 0.0 5.0 0.00 0.00 0.00 44 1017.4
20260502225529 53 355 1.0 9.0 0.00 0.00 0.00 39 1017.4
20260502225029 53 22 0.0 9.0 0.00 0.00 0.00 41 1017.3
20260502224529 53 324 0.0 4.0 0.00 0.00 0.00 42 1017.2
20260502224033 53 348 1.0 10.0 0.00 0.00 0.00 44 1017.2
20260502223529 54 355 1.0 10.0 0.00 0.00 0.00 44 1017.2
20260502223033 53 31 2.0 10.0 0.00 0.00 0.00 40 1017.2
20260502222527 53 31 0.0 3.0 0.00 0.00 0.00 44 1017.2
20260502222030 53 21 0.0 7.0 0.00 0.00 0.00 39 1017.3
20260502221527 54 321 1.0 7.0 0.00 0.00 0.00 40 1017.3
20260502221027 54 9 0.0 4.0 0.00 0.00 0.00 45 1017.2
20260502220527 53 322 1.0 4.0 0.00 0.00 0.00 38 1017.2
20260502220029 53 355 1.0 4.0 0.00 0.00 0.00 41 1017.1
20260502215526 53 11 1.0 4.0 0.00 0.00 0.00 40 1017.1
20260502215026 53 341 1.0 4.0 0.00 0.00 0.00 41 1017.2
20260502214530 54 311 1.0 4.0 0.00 0.00 0.00 41 1017.2